TimeCST,TemperatureF,Dew PointF,Humidity,Sea Level PressureIn,VisibilityMPH,Wind Direction,Wind SpeedMPH,Gust SpeedMPH,PrecipitationIn,Events,Conditions,WindDirDegrees,DateUTC
12:35 AM,29.1,18.9,66,29.96,10.0,West,4.6,-,N/A,,Scattered Clouds,280,2013-02-15 06:35:00
12:55 AM,29.3,18.7,65,29.96,10.0,WNW,3.5,-,N/A,,Mostly Cloudy,290,2013-02-15 06:55:00
1:15 AM,29.3,20.3,69,29.97,10.0,West,4.6,-,N/A,,Overcast,280,2013-02-15 07:15:00
1:35 AM,30.4,20.8,68,29.97,10.0,West,4.6,-,N/A,,Overcast,280,2013-02-15 07:35:00
1:55 AM,31.1,21.2,67,29.97,10.0,West,4.6,-,N/A,,Overcast,280,2013-02-15 07:55:00
2:15 AM,31.1,21.4,67,29.97,10.0,WNW,4.6,-,N/A,,Overcast,290,2013-02-15 08:15:00
2:55 AM,31.5,21.2,66,29.98,10.0,WNW,3.5,-,N/A,,Overcast,300,2013-02-15 08:55:00
3:15 AM,31.5,21.2,66,29.98,10.0,WNW,4.6,-,N/A,,Overcast,290,2013-02-15 09:15:00
3:35 AM,31.6,20.3,63,29.98,10.0,NW,6.9,-,N/A,,Overcast,310,2013-02-15 09:35:00
3:55 AM,31.6,20.3,63,29.99,10.0,WNW,5.8,-,N/A,,Overcast,300,2013-02-15 09:55:00
4:15 AM,31.5,21.4,66,29.99,10.0,NW,9.2,-,N/A,,Overcast,320,2013-02-15 10:15:00
4:35 AM,31.5,21.2,66,30.00,10.0,WNW,5.8,-,N/A,,Overcast,300,2013-02-15 10:35:00
4:55 AM,31.1,22.1,69,30.01,10.0,NW,10.4,-,N/A,,Overcast,320,2013-02-15 10:55:00
5:15 AM,31.1,22.6,71,30.01,10.0,NW,11.5,-,N/A,,Overcast,310,2013-02-15 11:15:00
5:35 AM,30.6,23.2,74,30.01,10.0,NW,10.4,-,N/A,,Overcast,320,2013-02-15 11:35:00
5:55 AM,30.4,24.1,77,30.02,10.0,NNW,12.7,-,N/A,Snow,Light Snow,340,2013-02-15 11:55:00
6:15 AM,28.9,25.7,88,30.03,10.0,North,12.7,18.4,N/A,Snow,Light Snow,360,2013-02-15 12:15:00
6:35 AM,28.4,25.7,90,30.04,5.0,North,13.8,-,N/A,Snow,Light Snow,360,2013-02-15 12:35:00
6:55 AM,28.4,25.3,88,30.05,5.0,North,16.1,20.7,N/A,Snow,Light Snow,360,2013-02-15 12:55:00
7:15 AM,28.4,23.9,83,30.06,7.0,North,11.5,18.4,N/A,Snow,Light Snow,360,2013-02-15 13:15:00
7:35 AM,28.0,23.2,82,30.08,7.0,NNW,12.7,-,N/A,Snow,Light Snow,340,2013-02-15 13:35:00
7:55 AM,27.5,23.7,86,30.08,4.0,NNW,11.5,-,N/A,Snow,Light Snow,340,2013-02-15 13:55:00
8:15 AM,27.5,23.4,84,30.09,3.0,NNW,10.4,-,N/A,Snow,Light Snow,340,2013-02-15 14:15:00
8:35 AM,27.5,23.7,86,30.10,1.8,North,9.2,-,N/A,Snow,Light Snow,350,2013-02-15 14:35:00
8:55 AM,27.1,23.0,84,30.11,5.0,NNW,12.7,-,N/A,Snow,Light Snow,340,2013-02-15 14:55:00
9:15 AM,27.1,22.1,81,30.11,4.0,NNW,16.1,-,N/A,Snow,Light Snow,330,2013-02-15 15:15:00
9:35 AM,27.1,21.0,78,30.12,5.0,NNW,13.8,20.7,N/A,Snow,Light Snow,330,2013-02-15 15:35:00
9:55 AM,27.1,19.6,73,30.12,7.0,NW,17.3,24.2,N/A,Snow,Light Snow,320,2013-02-15 15:55:00
10:15 AM,26.8,18.9,72,30.13,7.0,NNW,15.0,21.9,N/A,Snow,Light Snow,330,2013-02-15 16:15:00
10:35 AM,27.1,18.0,68,30.13,10.0,NNW,17.3,23.0,N/A,,Mostly Cloudy,330,2013-02-15 16:35:00
10:55 AM,28.2,17.8,65,30.13,10.0,NNW,15.0,20.7,N/A,,Scattered Clouds,330,2013-02-15 16:55:00
11:15 AM,28.0,18.0,66,30.13,10.0,NNW,16.1,23.0,N/A,,Scattered Clouds,330,2013-02-15 17:15:00
11:55 AM,27.5,16.3,63,30.13,10.0,North,17.3,21.9,N/A,,Mostly Cloudy,350,2013-02-15 17:55:00
12:15 PM,26.6,16.9,67,30.14,10.0,NNW,12.7,18.4,N/A,Snow,Light Snow,330,2013-02-15 18:15:00
12:35 PM,26.6,17.6,69,30.14,10.0,NW,11.5,-,N/A,Snow,Light Snow,310,2013-02-15 18:35:00
12:55 PM,27.0,16.2,64,30.14,10.0,NNW,11.5,16.1,N/A,,Overcast,340,2013-02-15 18:55:00
1:15 PM,27.0,15.3,61,30.14,10.0,NNW,13.8,19.6,N/A,,Overcast,330,2013-02-15 19:15:00
1:35 PM,27.3,14.0,57,30.14,10.0,NNW,12.7,20.7,N/A,,Mostly Cloudy,330,2013-02-15 19:35:00
1:55 PM,27.9,15.3,59,30.14,10.0,NW,12.7,17.3,N/A,,Mostly Cloudy,320,2013-02-15 19:55:00
2:15 PM,26.6,14.0,59,30.14,10.0,NNW,10.4,-,N/A,,Mostly Cloudy,330,2013-02-15 20:15:00
2:35 PM,28.2,15.3,58,30.14,10.0,NNW,13.8,17.3,N/A,,Mostly Cloudy,330,2013-02-15 20:35:00
2:55 PM,25.7,14.5,63,30.14,10.0,WNW,6.9,-,N/A,,Scattered Clouds,300,2013-02-15 20:55:00
3:15 PM,26.6,13.8,59,30.15,10.0,NW,9.2,-,N/A,,Scattered Clouds,320,2013-02-15 21:15:00
3:35 PM,27.1,12.7,55,30.15,10.0,NNW,10.4,-,N/A,,Scattered Clouds,340,2013-02-15 21:35:00
3:55 PM,27.1,11.1,51,30.15,10.0,NW,6.9,-,N/A,,Clear,310,2013-02-15 21:55:00
4:15 PM,26.8,10.8,51,30.15,10.0,North,5.8,-,N/A,,Clear,350,2013-02-15 22:15:00
4:35 PM,26.6,10.4,51,30.15,10.0,North,4.6,-,N/A,,Clear,360,2013-02-15 22:35:00
4:55 PM,25.7,10.9,54,30.15,10.0,North,3.5,-,N/A,,Clear,10,2013-02-15 22:55:00
5:15 PM,24.3,11.5,58,30.15,10.0,NNW,3.5,-,N/A,,Clear,340,2013-02-15 23:15:00
5:35 PM,24.1,11.3,58,30.15,10.0,North,3.5,-,N/A,,Clear,10,2013-02-15 23:35:00
5:55 PM,23.0,12.6,64,30.16,10.0,North,4.6,-,N/A,,Clear,350,2013-02-15 23:55:00
6:15 PM,22.6,12.2,64,30.16,10.0,Calm,Calm,-,N/A,,Mostly Cloudy,0,2013-02-16 00:15:00
6:35 PM,23.5,14.5,69,30.16,10.0,North,3.5,-,N/A,,Overcast,350,2013-02-16 00:35:00
6:55 PM,24.4,14.4,66,30.16,10.0,Calm,Calm,-,N/A,,Overcast,0,2013-02-16 00:55:00
7:15 PM,24.4,13.3,63,30.16,10.0,Calm,Calm,-,N/A,,Overcast,0,2013-02-16 01:15:00
7:35 PM,23.7,13.1,64,30.16,10.0,Calm,Calm,-,N/A,,Mostly Cloudy,0,2013-02-16 01:35:00
7:55 PM,23.4,13.8,67,30.15,10.0,Calm,Calm,-,N/A,,Overcast,0,2013-02-16 01:55:00
8:15 PM,23.7,17.1,76,30.15,10.0,Calm,Calm,-,N/A,,Overcast,0,2013-02-16 02:15:00
8:35 PM,24.4,13.3,63,30.15,10.0,Calm,Calm,-,N/A,,Overcast,0,2013-02-16 02:35:00
8:55 PM,23.7,15.6,71,30.15,10.0,Calm,Calm,-,N/A,,Overcast,0,2013-02-16 02:55:00
9:15 PM,23.0,15.8,74,30.15,10.0,Calm,Calm,-,N/A,,Overcast,0,2013-02-16 03:15:00
9:35 PM,24.1,15.4,70,30.14,10.0,WSW,4.6,-,N/A,,Overcast,240,2013-02-16 03:35:00
9:55 PM,24.6,16.5,71,30.14,10.0,WSW,6.9,-,N/A,,Overcast,240,2013-02-16 03:55:00
10:15 PM,23.9,17.6,77,30.13,7.0,WSW,8.1,-,N/A,Snow,Light Snow,240,2013-02-16 04:15:00
10:35 PM,23.9,17.4,76,30.13,10.0,WSW,8.1,-,N/A,,Overcast,250,2013-02-16 04:35:00
10:55 PM,23.9,18.1,79,30.13,10.0,West,8.1,-,N/A,,Overcast,270,2013-02-16 04:55:00
11:15 PM,23.2,19.2,85,30.12,4.0,West,9.2,-,N/A,Snow,Light Snow,260,2013-02-16 05:15:00
11:35 PM,22.8,20.1,89,30.12,5.0,WSW,5.8,-,N/A,Snow,Light Snow,250,2013-02-16 05:35:00
11:55 PM,22.5,19.6,89,30.11,4.0,West,5.8,-,N/A,Snow,Light Snow,270,2013-02-16 05:55:00